Regional Weather Roundup
Issued by NWS

Home | Current Version | Previous Version | Text Only | Print | Product List | Glossary On
Versions: 1 2 3 4 5 6 7 8 9 10 11 12 13 14 15 16 17 18 19 20 21 22 23 24 25 26 27 28 29 30 31 32 33 34 35 36 37 38 39 40 41 42 43 44 45 46 47 48 49 50
000
ASUS45 KABQ 281110
RWRNM
NEW MEXICO REGIONAL WEATHER ROUNDUP
NATIONAL WEATHER SERVICE ALBUQUERQUE NM
500 AM MDT TUE JUL 28 2015

NOTE: "FAIR" MEANS FEW OR NO CLOUDS BELOW 12,000 FEET AGL WITH NO
       SIGNIFICANT WEATHER OR OBSTRUCTIONS TO VISION.

      THIS PRODUCT IS RELEASED AS TWO VERSIONS.  ONE VERSION NEAR
      THE TOP OF THE HOUR CONTAINING PRELIMINARY DATA FROM ALBUQUERQUE
      AND OTHER STATIONS.  A FINAL VERSION WITH ADDITIONAL DATA IS
      ISSUED ABOUT 10 MINUTES AFTER THE HOUR.

NMZ501-503-504-510>518-281200-
NORTHWEST PLATEAU/NORTHCENTRAL MOUNTAINS

CITY           SKY/WX    TMP DP  RH WIND       PRES   REMARKS
FARMINGTON     CLEAR     54  29  38 NE7       30.10R
LOS ALAMOS     MOCLDY    67  49  50 S7        30.24R
SANTA FE       CLOUDY    70  51  51 SE7       30.17R
TAOS           CLOUDY    55  43  62 N6        30.23R
ANGEL FIRE     FAIR      43  41  94 S3        30.34R

$$
NMZ402-403-502-505>509-281200-
WESTCENTRAL MOUNTAINS/SOUTHWEST MOUNTAINS

CITY           SKY/WX    TMP DP  RH WIND       PRES   REMARKS
GALLUP         PTCLDY    60  39  45 CALM      30.21R
GRANTS         MOCLDY    59  52  75 CALM      30.22S
SILVER CITY      N/A     70  50  49 S7        30.15R

$$
NMZ407-409-411-412-281200-
SOUTHERN DESERTS

CITY           SKY/WX    TMP DP  RH WIND       PRES   REMARKS
LORDSBURG      FAIR      77  61  57 SW6       30.06R
DEMING         MOCLDY    76  58  53 SW15G23   30.06R
LAS CRUCES     MOCLDY    73  58  59 SW6       30.08R
HOLLOMAN AFB   MOCLDY    79  57  47 SE16G23   30.02R
ALAMOGORDO     MOCLDY    77  55  47 S18       30.05S
T OR C         PTCLDY    72  53  51 CALM      30.07R

$$
NMZ519>523-281200-
CENTRAL VALLEYS/CENTRAL HIGHLANDS

CITY           SKY/WX    TMP DP  RH WIND       PRES   REMARKS
ALBUQUERQUE    PTCLDY    77  51  40 S12       30.09S
DOUBLE EAGLE   MOCLDY    65  56  73 CALM      30.14R
MORIARTY ARPT    N/A     60  51  73 CALM      30.17F
CLINES CORNERS PTCLDY    64  51  62 S14       30.21F
BELEN          FAIR      71  52  51 S9        30.09R
SOCORRO        FAIR      68  50  51 SW3       30.07R

$$
NMZ524>526-539-540-281200-
SOUTHCENTRAL MOUNTAINS

CITY           SKY/WX    TMP DP  RH WIND       PRES   REMARKS
RUIDOSO          N/A    N/A N/A N/A MISG        N/A

$$
NMZ527>531-281200-
NORTHEAST HIGHLANDS/NORTHEAST PLAINS

CITY           SKY/WX    TMP DP  RH WIND       PRES   REMARKS
LAS VEGAS      PTCLDY    59  51  75 S13       30.21S
RATON          PTCLDY    58  52  80 N6        30.15R
CLAYTON        MOCLDY    72  55  55 SW14      30.04R

$$
NMZ532>537-281200-
EASTCENTRAL PLAINS

CITY           SKY/WX    TMP DP  RH WIND       PRES   REMARKS
TUCUMCARI      MOCLDY    76  54  46 CALM      29.99R
CANNON AFB     MOCLDY    69  60  74 S7        30.01S
CLOVIS AIRPORT PTCLDY    64  59  82 S8        30.02R

$$
NMZ028-029-538-281200-
SOUTHEAST PLAINS

CITY           SKY/WX    TMP DP  RH WIND       PRES   REMARKS
ROSWELL        PTCLDY    74  58  57 S7        29.97S
ARTESIA        PTCLDY    75  61  60 S3        29.99S
CARLSBAD       PTCLDY    78  60  53 SE8       29.95R
HOBBS          CLEAR     75  59  57 S8        30.00S


$$



USA.gov is the U.S. government's official web portal to all federal, state and local government web resources and services.